Location: Doazon
(43.4500°N, 0.5500°W)
Time: 02:07:22
(UTC+00:00)

BREEZE-M DEB (TANK) - Pass Details

Date: 05 December 2025
Orbit: 333 x 14357 km, 49.5° (Epoch: 23 January)

Event Time Altitude Azimuth Distance (km) Brightness Sun altitude
Rises 18:29:08 0° 229° (SW) 4,167 8.3 -21.6°
Reaches altitude 10° 18:33:03 10° 224° (SW) 2,239 6.6 -22.3°
Enters shadow 18:36:19 37° 191° (S) 733 3.5 -22.9°
